sat.trackr.live / text

‹ back to catalog

STARLINK-3240

NORAD 49728 · 2021-115E

PAYLOAD ACTIVE UNKNOWN

§ Identity

Operator
Country
US
Launch date
2021-12-02
Launch site
AFETR
Launch vehicle
Mass (kg)
RCS (m²)

Purposes: comms

External: N2YO · Heavens-Above · Gunter

§ Orbital elements

Epoch: 2026-09-09T15:38:04.727040Z

Period
93.85 min
Inclination
53.1608°
Eccentricity
0.0001017
Mean motion
15.34387791 rev/d
Perigee alt
462.0 km
Apogee alt
463.4 km
Semi-major
6,840.9 km
B*
1.3265e-6
RAAN
40.0911°
Arg perigee
89.0114°
Mean anomaly
271.1005°
Rev number
26,334

§ Raw data

STARLINK-32401 49728U 21115E   26252.65144360 -.00000331  00000+0  13265-5 0  99952 49728  53.1608  40.0911 0001017  89.0114 271.1005 15.34387791263344

JSON: /api/v1/satellites/49728 · /tle

For live sub-satellite position, see the globe view (requires WebGL).

§ Visibility from observer

Set your observer location to see the next 7 days of passes ≥ 10°. The values pass through the URL so the page stays shareable.

No JS? Fill the form by hand. The geolocation button needs JavaScript.